Regional Weather Roundup
Issued by NWS New Orleans/Baton Rouge, LA

Home | Current Version | Previous Version | Graphics & Text | Print | Product List | Glossary On
Versions: 1 2 3 4 5 6 7 8 9 10 11 12 13 14 15 16 17 18 19 20 21 22 23 24 25 26 27 28 29 30 31 32 33 34 35 36 37 38 39 40 41 42 43 44 45 46 47 48 49 50
331
ASUS44 KLIX 171305
RWRLIX
NEW ORLEANS REGIONAL WEATHER ROUNDUP
NATIONAL WEATHER SERVICE NEW ORLEANS LA
700 AM CST WED DEC 17 2014

NOTE: "FAIR" INDICATES FEW OR NO CLOUDS BELOW 12,000 FEET WITH NO
      SIGNIFICANT WEATHER AND/OR OBSTRUCTIONS TO VISIBILITY.
      SKY/WX - SKY CONDITION AND SIGNIFICANT WEATHER.
      TMP - AIR TEMPERATURE.     DP    - DEWPOINT TEMPERATURE.
      RH  - RELATIVE HUMIDITY.   PRES  - PRESSURE.
      HI  - HEAT INDEX.          WCI   - WIND CHILL INDEX.

*  THESE STATIONS ARE NOT NWS OR FAA STATIONS AND ARE NOT UNDER
   NWS QUALITY CONTROL.

LAZ038-040-048-061>063-065>067-069-171400-
SOUTHEAST LOUISIANA

CITY           SKY/WX    TMP DP  RH WIND       PRES   REMARKS
N.O. AUDUBON     N/A     47  39  72 MISG        N/A
N.O. INTL ARPT MOCLDY    46  38  73 E3        30.27S
N.O. LAKEFRONT CLEAR     50  39  66 E12       30.28S
N.O. DOWNTOWN*   N/A     48  36  61 NE5       30.27F
SLIDELL        PTCLDY    32  29  88 CALM      30.27S
BATON ROUGE    CLEAR     35  33  92 CALM      30.28R
BOOTHVILLE     CLEAR     52  45  77 NE6       30.26S
BELLE CHASSE   MOCLDY    41  37  86 CALM      30.27S
BOGALUSA*        N/A     33  32  93 CALM      30.29S
GALLIANO*      SUNNY     47  43  84 MISG      30.27S
NEW ROADS*       N/A     35  34  95 CALM      30.29R
GONZALES*        N/A     37  37 100 MISG      30.27R
HAMMOND*       NOT AVBL
HOUMA*         CLEAR     39  37  93 N3        30.27S
PORT FOURCHON* SUNNY     54  46  76 E7G13     30.29S

$$

MSZ070-080>082-171400-
SOUTHERN MISSISSIPPI

CITY           SKY/WX    TMP DP  RH WIND       PRES   REMARKS
MCCOMB         CLEAR     35  32  88 CALM      30.27R
GULFPORT       PTCLDY    35  33  92 CALM      30.28R
BILOXI         CLEAR     41  37  87 N5        30.28
PASCAGOULA     CLEAR     30  30 100 CALM      30.28R FOG
STENNIS ARPT*  CLEAR     32  28  86 CALM      30.29

$$

COASTAL OBSERVATIONS
LAKE AND NEARSHORE STATIONS

STATION/POSITION TIME  TEMP    WIND        PRES    WAVE
                       AIR SEA DIR/SP/G            HT/PER
                 (UTC) (F)     (DEG/KT/KT) (MB)    (FT/S)
PASCAGOULA       1300   41      10/  6/  7 1024.4
WAVELAND YACHT   1300   44      30/  8/ 10 1024.4
GRAND ISLE       1300   53 62   60/  8/ 11 1025.0
SOUTHWEST PASS   1300   55                 1024.7
NEW CANAL        1300   48 57   80/  4/  7 1025.3
SHELL BEACH      1300   51      70/ 11/ 13 1024.5

OFFSHORE STATIONS

STATION/POSITION TIME  TEMP    WIND        PRES    WAVE
                       AIR SEA DIR/SP/G            HT/PER
                 (UTC) (F)     (DEG/KT/KT) (MB)    (FT/S)
64 S DAUPHIN ISL 1300   59 74   30/ 10/ 14 1023.6    3/ 5

$$




USA.gov is the U.S. government's official web portal to all federal, state and local government web resources and services.